SCP
0 0 0 0 0 0 0 0 0 0 0 0 0 0 0 0 0 0 0 0 0 0 0 0 0 0 0 0 0 0 0 0
0 0 0 0 0 0 0 0 0 0 0 0 0 0 0 0 0 0 0 0 0 0 0 0 0 0 0 0 0 0 0 0
0 0 0 0 0 0 0 0 0 0 0 0 0 0 0 0 0 0 0 0 0 0 0 0 0 0 0 0 0 0 0 0
0 0 0 0 0 0 0 0 0 0 0 0 0 0 0 0 0 0 0 0 0 0 0 0 0 0 0 0 0 0 0 0
0 0 0 0 0 0 0 0 0 0 0 0 0 0 0 0 0 0 0 0 0 0 0 0 0 0 0 0 0 0 0 0
0 0 0 0 0 0 0 0 0 0 0 0 0 0 0 0 0 0 0 0 0 0 0 0 0 0 0 0 0 0 0 0
0 0 0 0 0 0 0 0 0 0 0 0 0 0 0 0 0 0 0 0 0 0 0 0 0 0 0 0 0 0 0 0
0 0 0 0 0 0 0 0 0 0 0 0 0 0 0 0 0 0 0 0 0 0 0 0 0 0 0 0 0 0 0 0
0 0 0 0 0 0 0 0 0 0 0 0 0 0 0 0 0 0 0 0 0 0 0 0 0 0 0 0 0 0 0 0
0 0 0 0 0 0 0 0 0 0 0 0 0 0 0 0 0 0 0 0 0 0 0 0 0 0 0 0 0 0 0 0
0 0 0 0 0 0 0 0 0 0 0 0 0 0 0 0 0 0 0 0 0 0 0 0 0 0 0 0 0 0 0 0
0 0 0 0 0 0 0 0 0 0 0 0 0 0 0 0 0 0 0 0 0 0 0 0 0 0 0 0 0 0 0 0
0 0 0 0 0 0 0 0 0 0 0 0 0 0 0 0 0 0 0 0 0 0 0 0 0 0 0 0 0 0 0 0
0 0 0 0 0 0 0 0 0 0 0 0 0 0 0 -0 -0 -0 0 -0 -0 -0 -0 0 0 0 0 0 0 0 0 0
0 0 0 0 0 0 0 0 0 -0 0 -0 -0 0 0 0 -0 -0 -0 -0 -0 -0 -0 -0 0 0 0 0 0 0 0 0
0 0 0 0 0 0 0 0 -0 -0 -0 -0 -0 -0 0 0 0 0 0 0 -0 -0 -0 -0 0 0 0 0 0 0 0 0
0 0 0 0 0 0 0 0 0 0 -0 -0 -0 -0 -0 -0 0 0 0 0 0 0 0 -0 0 0 0 0 0 0 0 0
0 0 0 0 0 0 0 0 0 0 0 0 0 -0 -0 -0 -0 -0 0 -0 0 0 0 0 0 0 0 0 0 0 0 0
0 0 0 0 0 0 0 0 0 0 0 0 0 0 -0 -0 -0 -0 -0 -0 -0 -0 -0 0 0 0 0 0 0 0 0 0
0 0 0 0 0 0 0 0 0 0 0 0 0 0 0 0 -0 -0 -0 -0 -0 -0 -0 -0 0 0 0 0 0 0 0 0
Wind_Speed_500mb
29 23 17 12 9 9 11 13 13 11 11 12 16 15 15 16 19 22 22 20 23 17 18 19 28 31 29 28 29 27 25 23
34 30 22 15 11 12 12 13 15 19 15 12 16 19 18 19 20 22 20 19 19 20 19 20 15 21 28 27 30 28 25 25
36 34 30 26 20 17 15 13 14 19 21 16 15 18 19 20 23 23 26 25 22 23 26 26 29 31 32 33 33 31 31 29
38 41 41 38 32 28 26 22 17 14 18 19 20 20 20 21 24 28 30 31 30 31 29 32 34 36 39 40 41 43 38 36
36 39 41 40 39 37 34 33 29 22 16 16 19 22 24 25 26 28 33 34 37 40 39 39 41 40 44 45 44 45 47 47
34 35 36 37 37 37 37 37 37 33 28 24 22 22 24 28 31 32 33 36 40 46 48 48 48 46 45 46 52 54 54 55
32 33 35 37 38 37 37 38 39 39 37 35 30 27 27 28 31 34 36 38 40 42 48 56 59 56 54 53 54 52 59 61
33 35 36 38 38 36 38 40 41 41 40 39 39 37 35 32 33 33 34 37 43 45 46 52 54 57 62 60 60 60 67 64
26 27 32 37 38 38 38 39 40 42 43 43 43 43 43 42 40 37 36 36 38 43 47 52 55 53 57 64 66 68 69 72
22 23 26 30 32 35 38 42 43 44 45 47 49 48 48 50 50 48 43 42 41 41 44 49 56 57 57 62 67 73 78 79
19 21 26 32 35 37 39 43 45 48 50 51 51 51 50 52 57 56 52 49 50 48 45 46 50 52 57 60 67 76 80 82
19 22 27 32 37 40 43 47 50 51 53 54 55 57 56 55 53 54 57 60 56 55 52 50 46 46 49 53 62 68 78 85
18 22 28 35 41 45 50 53 56 58 61 63 64 64 64 65 63 61 59 57 56 62 63 57 54 51 45 42 48 54 62 73
23 28 35 42 50 56 60 64 66 68 69 70 71 72 73 74 73 72 68 66 65 63 63 62 63 62 56 51 48 48 54 62
28 33 39 45 51 57 66 73 77 80 79 78 77 74 72 72 73 75 75 73 72 71 69 69 66 63 61 64 62 60 61 61
39 45 51 58 63 65 69 70 68 69 70 73 76 76 75 71 69 69 69 69 74 74 73 75 75 65 63 66 70 69 68 67
46 53 59 66 69 66 67 69 69 71 70 70 71 72 75 77 81 72 72 69 69 71 72 76 74 73 70 69 69 68 67 74
52 59 65 66 64 62 64 65 65 68 69 71 73 74 75 75 77 86 85 80 75 73 72 72 76 77 78 76 75 74 68 67
57 59 59 59 58 59 63 67 68 69 71 71 72 74 76 77 79 81 84 90 94 84 80 77 74 74 78 79 80 82 70 67
55 52 53 56 54 57 59 64 67 70 72 74 77 77 77 79 81 83 86 89 93 92 87 82 80 78 77 75 74 79 79 75
Wind_Direction_500mb
49 50 41 25 354 330 317 313 306 309 317 317 299 279 268 265 258 259 261 255 240 238 248 238 226 221 225 229 230 232 242 241
42 43 41 27 358 331 314 305 298 300 301 310 308 295 279 270 266 260 261 256 247 237 237 235 237 229 237 236 237 238 244 237
41 44 41 36 22 5 348 331 309 299 299 298 296 297 293 279 268 264 258 256 252 249 241 240 241 242 244 245 245 248 249 244
41 41 40 40 33 26 14 6 348 316 295 285 279 278 282 279 268 262 258 253 254 253 250 252 250 248 247 248 250 253 248 249
33 34 37 33 28 28 25 20 12 4 340 309 290 281 276 276 270 262 258 253 249 251 253 255 254 257 252 250 251 249 250 249
20 21 24 25 24 23 23 21 18 15 8 356 335 312 293 280 274 271 268 264 257 253 252 252 255 255 256 257 256 254 253 251
12 11 11 11 10 9 10 11 12 11 10 6 358 346 329 311 294 282 273 269 267 263 257 255 254 254 260 258 256 256 254 254
5 4 6 6 4 4 4 1 359 358 356 357 356 354 349 340 324 306 292 280 271 268 266 261 262 259 255 261 260 258 255 257
8 11 9 7 7 7 3 0 359 357 355 354 349 344 343 344 341 332 320 307 292 281 271 266 264 260 259 258 261 261 259 256
12 14 15 15 16 13 9 9 6 4 2 358 353 347 344 337 334 334 333 328 320 305 290 280 272 267 259 258 260 260 260 258
14 12 12 14 13 10 6 4 4 4 2 360 357 354 350 344 336 330 327 326 324 322 320 307 290 278 269 262 260 261 262 261
3 3 4 3 1 357 353 349 349 347 346 345 344 342 342 341 340 337 332 324 319 318 317 316 315 302 283 269 266 266 266 265
351 352 350 347 344 342 337 335 333 332 330 329 327 327 326 325 325 327 330 329 328 320 313 313 312 310 308 299 276 269 269 270
335 338 337 336 335 332 329 325 324 322 320 318 317 316 316 316 315 316 317 319 320 321 321 317 313 308 308 305 301 293 279 272
316 320 322 323 323 322 319 317 317 317 318 317 316 315 313 312 312 311 311 310 310 310 311 312 313 317 312 306 305 302 300 295
312 316 320 320 320 321 316 315 315 315 316 316 317 317 316 315 314 311 308 307 306 305 303 304 303 306 307 310 309 301 297 295
303 308 311 312 315 316 314 315 317 316 317 316 316 316 316 316 313 311 310 307 305 302 299 298 295 295 293 295 297 298 301 293
301 305 308 310 312 311 311 312 313 313 313 314 314 315 315 314 313 312 309 310 307 306 304 299 296 293 291 289 289 290 296 298
299 304 306 307 309 309 310 310 311 310 311 311 312 312 312 312 311 310 310 309 307 308 306 304 302 298 292 289 288 287 285 288
303 307 306 305 310 309 310 309 308 309 309 311 310 310 310 309 308 308 308 307 306 305 303 306 305 300 296 293 289 287 285 284
Wind_Speed_850mb
29 23 17 12 9 9 11 13 13 11 11 12 16 15 15 16 19 22 22 20 23 17 18 19 28 31 29 28 29 27 25 23
34 30 22 15 11 12 12 13 15 19 15 12 16 19 18 19 20 22 20 19 19 20 19 20 15 21 28 27 30 28 25 25
36 34 30 26 20 17 15 13 14 19 21 16 15 18 19 20 23 23 26 25 22 23 26 26 29 31 32 33 33 31 31 29
38 41 41 38 32 28 26 22 17 14 18 19 20 20 20 21 24 28 30 31 30 31 29 32 34 36 39 40 41 43 38 36
36 39 41 40 39 37 34 33 29 22 16 16 19 22 24 25 26 28 33 34 37 40 39 39 41 40 44 45 44 45 47 47
34 35 36 37 37 37 37 37 37 33 28 24 22 22 24 28 31 32 33 36 40 46 48 48 48 46 45 46 52 54 54 55
32 33 35 37 38 37 37 38 39 39 37 35 30 27 27 28 31 34 36 38 40 42 48 56 59 56 54 53 54 52 59 61
33 35 36 38 38 36 38 40 41 41 40 39 39 37 35 32 33 33 34 37 43 45 46 52 54 57 62 60 60 60 67 64
26 27 32 37 38 38 38 39 40 42 43 43 43 43 43 42 40 37 36 36 38 43 47 52 55 53 57 64 66 68 69 72
22 23 26 30 32 35 38 42 43 44 45 47 49 48 48 50 50 48 43 42 41 41 44 49 56 57 57 62 67 73 78 79
19 21 26 32 35 37 39 43 45 48 50 51 51 51 50 52 57 56 52 49 50 48 45 46 50 52 57 60 67 76 80 82
19 22 27 32 37 40 43 47 50 51 53 54 55 57 56 55 53 54 57 60 56 55 52 50 46 46 49 53 62 68 78 85
18 22 28 35 41 45 50 53 56 58 61 63 64 64 64 65 63 61 59 57 56 62 63 57 54 51 45 42 48 54 62 73
23 28 35 42 50 56 60 64 66 68 69 70 71 72 73 74 73 72 68 66 65 63 63 62 63 62 56 51 48 48 54 62
28 33 39 45 51 57 66 73 77 80 79 78 77 74 72 72 73 75 75 73 72 71 69 69 66 63 61 64 62 60 61 61
39 45 51 58 63 65 69 70 68 69 70 73 76 76 75 71 69 69 69 69 74 74 73 75 75 65 63 66 70 69 68 67
46 53 59 66 69 66 67 69 69 71 70 70 71 72 75 77 81 72 72 69 69 71 72 76 74 73 70 69 69 68 67 74
52 59 65 66 64 62 64 65 65 68 69 71 73 74 75 75 77 86 85 80 75 73 72 72 76 77 78 76 75 74 68 67
57 59 59 59 58 59 63 67 68 69 71 71 72 74 76 77 79 81 84 90 94 84 80 77 74 74 78 79 80 82 70 67
55 52 53 56 54 57 59 64 67 70 72 74 77 77 77 79 81 83 86 89 93 92 87 82 80 78 77 75 74 79 79 75
Wind_Direction_850mb
49 50 41 25 354 330 317 313 306 309 317 317 299 279 268 265 258 259 261 255 240 238 248 238 226 221 225 229 230 232 242 241
42 43 41 27 358 331 314 305 298 300 301 310 308 295 279 270 266 260 261 256 247 237 237 235 237 229 237 236 237 238 244 237
41 44 41 36 22 5 348 331 309 299 299 298 296 297 293 279 268 264 258 256 252 249 241 240 241 242 244 245 245 248 249 244
41 41 40 40 33 26 14 6 348 316 295 285 279 278 282 279 268 262 258 253 254 253 250 252 250 248 247 248 250 253 248 249
33 34 37 33 28 28 25 20 12 4 340 309 290 281 276 276 270 262 258 253 249 251 253 255 254 257 252 250 251 249 250 249
20 21 24 25 24 23 23 21 18 15 8 356 335 312 293 280 274 271 268 264 257 253 252 252 255 255 256 257 256 254 253 251
12 11 11 11 10 9 10 11 12 11 10 6 358 346 329 311 294 282 273 269 267 263 257 255 254 254 260 258 256 256 254 254
5 4 6 6 4 4 4 1 359 358 356 357 356 354 349 340 324 306 292 280 271 268 266 261 262 259 255 261 260 258 255 257
8 11 9 7 7 7 3 0 359 357 355 354 349 344 343 344 341 332 320 307 292 281 271 266 264 260 259 258 261 261 259 256
12 14 15 15 16 13 9 9 6 4 2 358 353 347 344 337 334 334 333 328 320 305 290 280 272 267 259 258 260 260 260 258
14 12 12 14 13 10 6 4 4 4 2 360 357 354 350 344 336 330 327 326 324 322 320 307 290 278 269 262 260 261 262 261
3 3 4 3 1 357 353 349 349 347 346 345 344 342 342 341 340 337 332 324 319 318 317 316 315 302 283 269 266 266 266 265
351 352 350 347 344 342 337 335 333 332 330 329 327 327 326 325 325 327 330 329 328 320 313 313 312 310 308 299 276 269 269 270
335 338 337 336 335 332 329 325 324 322 320 318 317 316 316 316 315 316 317 319 320 321 321 317 313 308 308 305 301 293 279 272
316 320 322 323 323 322 319 317 317 317 318 317 316 315 313 312 312 311 311 310 310 310 311 312 313 317 312 306 305 302 300 295
312 316 320 320 320 321 316 315 315 315 316 316 317 317 316 315 314 311 308 307 306 305 303 304 303 306 307 310 309 301 297 295
303 308 311 312 315 316 314 315 317 316 317 316 316 316 316 316 313 311 310 307 305 302 299 298 295 295 293 295 297 298 301 293
301 305 308 310 312 311 311 312 313 313 313 314 314 315 315 314 313 312 309 310 307 306 304 299 296 293 291 289 289 290 296 298
299 304 306 307 309 309 310 310 311 310 311 311 312 312 312 312 311 310 310 309 307 308 306 304 302 298 292 289 288 287 285 288
303 307 306 305 310 309 310 309 308 309 309 311 310 310 310 309 308 308 308 307 306 305 303 306 305 300 296 293 289 287 285 284